Airfield :
LOGIN :

Register | Disclaimer

   EN    FR    IT 

 










Legend :    VFR   Marginal VFR   IFR   Intensive IFR   Very Intensive IFR
Visi :
Ceiling :
>= 8 km
>= 3000ft
5 to 8 km
1000 to 3000 ft
1500m to 5 km
500 to 1000 ft
800 to 1500m
200 to 500 ft
< 800m
< 200 ft
Symbols :   Thunderstorms  Fog  Heavy snow  Heavy precipitations  Wind > 20 kt
SIGMETs :     Misc.  Thunderstorms  Icing  Turbulence  Mountain Waves  Volcanic Ashes






- Airport Elevation : 1267 ft
- IATA code : CUF


LIMZ - Cuneo Levaldigi

CURRENT METAR :
  • 191020Z AUTO 36008KT 340V040 9999 ///////// 20/15 Q1009

EXPIRED METARs :
  • 190950Z AUTO 01008KT 330V050 9999 ///////// 21/15 Q1009
  • 190920Z AUTO 36008KT 320V040 9999 ///////// 21/16 Q1010
  • 190850Z AUTO 34008KT 320V030 9999 ///////// 20/16 Q1009
  • 190820Z AUTO 35007KT 320V020 9999 ///////// 20/17 Q1009
  • 190750Z AUTO 36005KT 300V030 9999 ///////// 19/16 Q1009

TAF TAF LIMZ
Valid from the 19 at 06:00 until the 20 at 06:00 UTC


190500Z 1906/2006 VRB05KT 9999 BKN030
TEMPO 1906/1915 4000 TSRA



MET'MAP, your aeronautical weather chart ! - Copyright ORBIFLY December 2007 - Disclaimer

ORBIFLY MET'MAP TEAM :

Programming & Development : Alexandra Zaïnal
Concept & original design : Baudouin d'Aumeries
Assistance for programming : Marc-Olivier Méhu
Technical & hardware support : Manuel Goepfert

Contact : metmap@orbifly.com




SOURCES & CREDITS :

   NOAA